DECAYED
Showing default

SPACEBEE-179, 56969 (Decayed)

Orbit data source: Space-Track

SPACEBEE-179, 56969 was a payload satellite owned by Swarm Tech (US) in LEO that was launched on Mon, 12 Jun 2023 UTC via an FALCON 9 launch vehicle from the Air Force Western Test Range (AFWTR). Payload-class satellites include a variety of spacecraft equipped with specific instruments for various scientific and technological missions. These include communications satellites like Starlink; space stations such as the ISS; scientific satellites like the Hubble; Earth observation satellites from companies like Planet Labs, Umbra, and HawkEye 360; GPS; miniature CubeSats for education and research; and military/defense satellites.

Not visible in the next 10 days
Identifier
56969, 2023-084AP
Orbit
Decayed
Country
Flag of USUS
Related business
Manufacturer
Swarm Tech
Mission
Decayed Commercial Communications
Bus & Motor
CUBESAT 0.25U, Unknown motor
Mass
0.284 kg wet, 0.284 kg dry
Launch date (UTC)
2023-06-12 (2 years ago)
Launch vehicle
FALCON 9
Launch site
Air Force Western Test Range (AFWTR)
Object type
Payload
Rocket body
Debris
Shape & HBR
Box + 2 Ant, 0.5 m
Radar Cross Section
0.016 m², Small (<0.1 m²)

Expand to show TLE details & history
Last TLE update: 9 months ago

TLE from 9 months ago
0 SPACEBEE-179
1 56969U 23084AP  24323.51905235  .14733704  26201-5  49126-3 0  9996
2 56969  97.5111  93.6462 0012405 285.9129  74.0804 16.43532409 80311
Epoch: 2024-11-18T12:27Z
TLE epoch observation values (Epoch: 2024-11-18T12:27:26.123Z)
Latitude
-0.00006°
Longitude
-151.25532°
Altitude
157.461 km
Speed
7.813 km/s
True Right ascension
06h 14m 35s
True Declination
0° 00' 00"
Sunlit
Object was in full shadow at epoch
Visualization orbit readout
Latitude
Unknown
Longitude
Unknown
Altitude
Unknown
Speed
Unknown
Apparent Right ascension
Unknown
Apparent Declination
Unknown
Sunlit
N/A
Visualization observer readout
Local Sidereal Time
08:52:41
Azimuth
Unknown
Elevation
Unknown
Doppler factor
Unknown
Orbital elements
Apogee altitude
161.333 km
Perigee altitude
145.129 km
Semi-major axis
6,531.368 km
Eccentricity
0.00124
Inclination
97.5111°
RAAN
93.6462°
Arg. of periapsis
285.9129°
True anomaly
74.21716°
Mean anomaly
74.0804°
Eccentric anomaly
74.14877°
Mean motion
4.11185 °/min
Orbital period
87.55 mins
BSTAR
0.00049126
Loading maneuver chart data...
Computing Atmospheric mass density...
Loading historical data...
Loading historical data...
Loading historical data...
Loading historical data...
Loading historical data...
Loading historical data...
Loading historical data...

Documentation

Showing up to 5 results
|